Flag for Greenland Weather past 2 weeks in Qaanaaq, Greenland

Now
37 °F

Mostly cloudy.


Feels Like: 37 °F
Forecast: 25 / 31 °F
Wind: 2 mph from Northwest

Location: Thule A. B.

Current Time: Aug 29, 2014 at 12:18:51 PM

Latest Report: Aug 29, 2014 at 11:58 AM


Visibility: N/A

Pressure: 29.88 "Hg

Humidity: 87%

Dew point: 34 °F

Location of QaanaaqLocation

Historic Weather in Qaanaaq — Graph

°F

Qaanaaq temperature yesterday

Maximum temperature yesterday: 37 °F (at 12:58 PM)
Minimum temperature yesterday: 34 °F (at 4:58 PM)
Average temperature yesterday: 36 °F

Past Weeks' High & Low Weather Summary

 TemperatureHumidityPressure
High48 °F (Aug 19, 9:58 AM)100% (Aug 27, 3:00 AM)30.12 "Hg (Aug 27, 3:00 AM)
Low30 °F (Aug 24, 4:58 AM)46% (Aug 14, 4:58 PM)29.49 "Hg (Aug 16, 7:58 PM)
Average39 °F79%29.84 "Hg
* Reported Aug 14 10:04 AM — Aug 29 10:58 AM, Qaanaaq, Weather by CustomWeather, © 2014

Note: Actual official high and low records may vary slightly from our data, if they occured in-between our weather recording intervals... More about our weather records

Advertising

Qaanaaq weather history for previous 24 hours

 ConditionsComfort  
Time TempWeatherWind HumidityBarometerVisibility
10:58 AM
Aug 29
37 °FOvercast.No wind81%29.88 "HgN/A
9:58 AM36 °FMostly cloudy.2 mph87%29.88 "HgN/A
9:02 AM34 °FMore clouds than sun.6 mph93%29.92 "HgN/A
7:58 AM34 °FOvercast.6 mph93%29.88 "HgN/A
6:58 AM34 °FOvercast.6 mph93%29.88 "HgN/A
5:58 AM34 °FOvercast.6 mph93%29.88 "HgN/A
4:58 AM34 °FOvercast.7 mph93%29.87 "HgN/A
3:58 AM34 °FOvercast.7 mph87%29.86 "HgN/A
2:58 AM34 °FOvercast.5 mph87%29.86 "HgN/A
1:58 AM34 °FOvercast.6 mph93%29.86 "HgN/A
12:58 AM34 °FOvercast.8 mph93%29.86 "HgN/A
11:58 PM
Aug 28
34 °FLight snow. Overcast.12 mph93%29.85 "HgN/A
10:58 PM36 °FPartly sunny.6 mph87%29.85 "HgN/A
9:58 PM36 °FMostly cloudy.12 mph87%29.85 "HgN/A
8:58 PM36 °FOvercast.10 mph87%29.83 "HgN/A
8:02 PM36 °FMostly cloudy.6 mph87%29.88 "HgN/A
7:58 PM36 °FMostly cloudy.7 mph87%29.83 "HgN/A
6:58 PM36 °FOvercast.9 mph87%29.83 "HgN/A
5:58 PM36 °FLight rain. Fog.9 mph87%29.83 "Hg5 mi
4:58 PM34 °FLight rain. Fog.18 mph93%29.81 "Hg4 mi
3:58 PM36 °FOvercast.21 mph87%29.80 "HgN/A
2:58 PM36 °FOvercast.22 mph87%29.81 "HgN/A
1:58 PM36 °FMostly cloudy.21 mph81%29.81 "HgN/A
12:58 PM37 °FOvercast.23 mph75%29.81 "HgN/A
Weather by CustomWeather, © 2014

See weather overviewHow to use our weather pages